{"data":{"norad_id":44836,"epoch":"2026-05-25T04:20:13.167744Z","epoch_age_seconds":55859,"freshness":"FRESH","line1":"1 44836U 19086A   26145.18070796  .00005651  00000+0  26173-3 0  9993","line2":"2 44836  97.4887 217.3200 0015034  45.8304 314.4164 15.20408488356997","mean_motion":15.20408488,"eccentricity":0.0015034,"inclination_deg":97.4887,"raan_deg":217.32,"arg_perigee_deg":45.8304,"mean_anomaly_deg":314.4164,"bstar":0.00026173,"rev_number":35699,"period_min":94.711389167146,"perigee_km":494.26002864274,"apogee_km":514.95506494604,"semimajor_km":6882.7445467944,"source":"CELESTRAK","updated_at":"2026-05-25T13:37:56.034914Z"}}